Regional Weather Roundup
Issued by NWS Upton, NY

Current Version | Previous Version | Text Only | Print | Product List | Glossary Off
Versions: 1 2 3 4 5 6 7 8 9 10 11 12 13 14 15 16 17 18 19 20 21 22 23 24 25 26 27 28 29 30 31 32 33 34 35 36 37 38 39 40 41 42 43 44 45 46 47 48 49 50
000 ASUS41 KOKX 310405 RWROKX REGIONAL WEATHER ROUNDUP NATIONAL WEATHER SERVICE NEW YORK NY 1100 PM EST FRI JAN 30 2015 NOTE: "FAIR" INDICATES FEW OR NO CLOUDS BELOW 12,000 FEET WITH NO SIGNIFICANT WEATHER AND/OR OBSTRUCTIONS TO VISIBILITY. NYZ071-072-176-178-NJZ106-104-310500- NEW YORK CITY METRO AREA CITY SKY/WX TMP DP RH WIND PRES REMARKS CENTRAL PARK CLEAR 20 4 50 NW15G36 30.02S WCI 6 LAGUARDIA APRT PTCLDY 21 8 57 NW28G43 30.00F WCI 3 KENNEDY INTL PTCLDY 21 5 50 NW28G38 30.00F WCI 3 NEWARK/LIBERTY PTCLDY 18 6 59 NW22G31 30.05S WCI 1 BRNX BOT. GARD N/A N/A N/A N/A W21 30.02R TETERBORO CLEAR 19 4 51 NW21G33 30.03S WCI 3 $$ NYZ177-179-078>081-310500- LONG ISLAND NEW YORK CITY SKY/WX TMP DP RH WIND PRES REMARKS FARMINGDALE CLEAR 21 6 52 NW16G30 29.96S WCI 7 ISLIP PTCLDY 21 7 54 NW23G29 29.92R WCI 5 SHIRLEY CLEAR 21 8 57 NW26G36 29.91F WCI 4 WESTHAMPTON CLEAR 20 6 55 NW22G37 29.89R WCI 3 MONTAUK POINT N/A 22 11 62 NW20G31 29.85R WCI 7 $$ NYZ052-065-067-310500- HUDSON VALLEY CITY SKY/WX TMP DP RH WIND PRES REMARKS WHITE PLAINS FAIR 18 5 57 NW23G35 29.94S WCI 0 NEWBURGH PTCLDY 18 7 62 NW18G30 30.00S WCI 2 MONTGOMERY MOCLDY 18 3 52 NW17G25 30.00S WCI 3 POUGHKEEPSIE CLEAR 19 3 49 NW13G28 30.02R WCI 6 ALBANY PTCLDY 10 -3 55 NW15G24 30.08R WCI -7 $$ NJZ001-105-106-008-010-013-015-019>022-104-310500- NEW JERSEY CITY SKY/WX TMP DP RH WIND PRES REMARKS NEWARK/LIBERTY PTCLDY 18 6 59 NW22G31 30.05S WCI 1 TETERBORO CLEAR 19 4 51 NW21G33 30.03S WCI 3 CALDWELL PTCLDY 18 3 52 NW13 30.05S WCI 5 MORRISTOWN CLEAR 19 3 49 NW17G24 30.06R WCI 4 SOMERVILLE PTCLDY 18 3 52 NW16G29 30.07S WCI 3 SUSSEX PTCLDY 15 2 56 VRB3G21 30.04R ANDOVER N/A 15 1 53 VRB7G18 30.06S WCI 5 TRENTON CLEAR 20 4 50 NW14G33 30.07S WCI 7 MILLVILLE CLEAR 24 8 50 NW24G35 30.10R WCI 8 ATLANTIC CITY CLEAR 24 8 50 NW29G35 30.06R WCI 7 WRIGHTSTOWN FAIR 20 7 56 NW14G26 30.06R WCI 7 TOMS RIVER CLEAR 19 5 53 NW21G28 30.05S WCI 3 BELMAR CLEAR 19 1 45 NW21G29 30.03S WCI 3 $$ PAZ047>061-062-071-310500- EASTERN PENNSYLVANIA CITY SKY/WX TMP DP RH WIND PRES REMARKS PHILADELPHIA CLEAR 23 3 42 NW22G33 30.14R WCI 8 ALLENTOWN MOCLDY 17 2 51 NW14 30.13R WCI 3 SCRANTON FLURRIES 13 1 59 NW14G25 30.13S WCI -2 $$ CTZ002-004>006-009-010-012-RIZ004-006-007-MAZ004-011-015-310500- SOUTHERN NEW ENGLAND IN CT CITY SKY/WX TMP DP RH WIND PRES REMARKS BRADLEY INTL PTCLDY 15 3 59 NW15G25 29.91F WCI 0 HARTFORD CLEAR 16 3 56 NW14G25 29.93F WCI 2 DANBURY CLEAR 16 2 54 NW12G23 29.96R WCI 3 WTRBRY/OXFORD CLEAR 12 -2 52 NW18G33 29.89S WCI -5 BRIDGEPORT FAIR 19 6 57 NW20G32 29.93F WCI 3 MERIDEN PTCLDY 16 3 56 NW18G31 29.93S WCI 0 NEW HAVEN CLEAR 18 4 54 NW15G23 29.93S WCI 4 CHESTER FAIR 18 5 57 NW20G33 29.86S WCI 1 GROTON CLEAR 18 8 65 NW21G36 29.82S WCI 1 WILLIMANTIC CLEAR 18 6 59 NW12G24 29.85S WCI 5 IN RI CITY SKY/WX TMP DP RH WIND PRES REMARKS PROVIDENCE PTCLDY 22 8 55 NW20G31 29.78R WCI 7 BLOCK ISLAND CLEAR 23 10 58 NW20G31 29.77S WCI 8 WESTERLY CLEAR 20 9 62 NW16G31 29.81R WCI 6 IN MA CITY SKY/WX TMP DP RH WIND PRES REMARKS BOSTON CLOUDY 20 9 62 NW26G37 29.76R WCI 2 WORCESTER CLEAR 12 4 70 NW32G48 29.73S BLWGSNOWWCI -10 WESTFIELD CLEAR 15 3 59 NW15 29.90F WCI 0 PROVINCETOWN CLOUDY 28 21 74 NW28G41 29.68F WCI 13 NANTUCKET CLOUDY 31 22 69 NW21G31 29.66S WCI 18 $$ ANZ330-335-338-340-345-350-353-355-310500- COASTAL MARINE OBSERVATIONS STATION/POSITION TIME SKY/WX TEMP WIND PRES VSBY WAVE AIR SEA DIR/SP/G HT/PER (UTC) (F) (DEG/KT/KT) (MB) (MI) (FT/S) NY HARB ENTRANCE 0400 24 40 310/ 31/ 39 1014.6 7/ 5 4S FIRE IS 0400 37 N/A 5/ 6 20S FIRE ISLAND 0300 41 1013.5 8/ 7 23SW MTP 0400 N/A 8/ 5 HUDSON CANYON NOT AVBL EXECUTION ROCKS 0400 23 33 300/ 21/ 31 N/A WESTERN LI SOUND 0400 23 310/ 21/ 25 N/A 3/ 4 CENTRAL LI SOUND 0300 22 35 310/ 27/ 39 N/A 4/ 4 EASTERN LI SOUND NOT AVBL ROBBINS REEF 0400 20 310/ 27/ 35 1015.6 $$ >>>>>>>>>>>>>>>>>>>>>>>>>>>> KEY <<<<<<<<<<<<<<<<<<<<<<<<<<< > < > SKY/WX - SKY CONDITION/PRESENT WEATHER < > TMP - TEMPERATURE IN FAHRENHEIT < > DP - DEWPOINT IN FAHRENHEIT < > RH - RELATIVE HUMIDITY IN PERCENT < > WIND - DIRECTION AND SPEED IN MPH < > PRES - MEAN SEA LEVEL PRESSURE IN INCHES OF HG < > WCI - WIND CHILL INDEX < > VSB - VISIBILITY IN MILES < > HX - HEAT INDEX < > TC - TEMPERATURE IN CELSIUS < > VRB - VARIABLE WIND DIRECTION < > < >>>>>>>>>>>>>>>>>>>>>>>>>>>> KEY <<<<<<<<<<<<<<<<<<<<<<<<<<<

USA.gov is the U.S. government's official web portal to all federal, state and local government web resources and services.